Wind_Speed
11 12 12 12 12 12 11 12 13 14 15 17 20 23 27 31 35 38 42 46 50 55 59 64 69 75 78 80 82 84 86 87 85 79 74 71 70 70 70 67 64 61 58 56
9 10 11 11 12 13 12 12 13 14 16 19 21 23 28 31 35 40 45 50 54 58 62 67 73 77 79 81 82 84 86 85 80 75 73 71 71 70 67 62 58 56 53 51
10 10 11 11 12 13 13 13 13 14 18 21 22 22 28 33 39 44 49 52 56 60 65 70 75 77 79 81 83 85 85 81 76 73 72 71 69 66 60 54 51 50 49 48
10 11 11 12 12 12 12 13 14 16 19 23 25 27 31 37 43 47 51 54 57 62 67 72 75 77 79 81 83 84 82 77 73 73 72 71 67 60 54 50 48 50 51 50
11 11 12 12 13 13 13 14 16 18 21 23 27 31 35 40 45 49 53 55 59 64 69 72 75 77 79 82 84 83 78 74 72 73 72 69 63 56 51 49 50 52 53 54
11 12 12 13 13 14 16 17 18 20 22 25 29 33 37 42 47 51 54 57 60 65 69 72 75 77 80 82 82 80 75 72 72 72 70 66 59 53 50 51 52 53 54 55
11 13 13 14 15 16 18 20 22 24 25 28 31 35 39 43 48 53 56 58 62 65 69 72 75 77 80 82 81 77 73 71 72 71 68 64 57 53 52 54 56 57 57 57
13 14 14 15 16 19 21 23 25 28 29 29 32 36 40 45 50 54 57 59 62 66 70 73 75 78 80 81 79 74 71 71 72 70 66 62 56 54 56 59 61 62 62 61
14 14 15 16 18 21 23 25 27 30 32 34 35 39 43 47 51 54 57 59 63 68 71 74 76 78 80 80 77 72 70 70 71 69 65 61 57 56 59 63 65 66 66 65
16 15 16 18 20 23 26 28 31 33 37 41 41 42 45 48 51 55 58 61 65 69 72 74 76 78 79 78 74 70 70 71 70 68 65 61 58 59 63 66 68 69 70 70
17 17 18 20 23 26 28 30 33 35 37 42 45 44 46 48 51 56 58 62 66 69 72 74 76 78 78 76 72 69 69 70 69 67 64 61 59 62 65 68 71 72 74 73
17 18 19 21 24 26 28 31 33 36 39 41 44 45 46 48 51 55 59 62 66 70 72 73 75 77 76 74 71 69 69 69 68 66 64 61 61 64 67 70 73 75 76 70
20 20 21 22 24 26 28 31 34 37 39 40 42 43 45 47 51 55 58 62 66 69 71 73 74 75 75 73 70 68 68 68 67 65 64 62 62 65 68 72 75 77 74 63
21 23 25 27 29 30 32 34 36 37 38 39 39 41 44 47 51 55 58 62 66 69 71 71 73 74 74 72 69 68 68 67 66 65 64 62 63 66 70 73 76 77 71 57
21 24 27 29 32 34 36 37 38 38 38 38 38 39 43 47 51 54 59 63 66 69 70 70 71 73 73 71 68 67 67 66 65 65 64 63 64 67 70 74 77 76 69 53
19 22 26 29 32 35 39 41 41 41 41 40 40 40 43 46 51 54 59 63 66 68 68 69 71 73 72 70 67 66 66 66 65 64 64 64 65 67 70 74 77 76 68 52
17 21 25 29 33 37 42 46 46 44 44 44 43 43 45 47 51 55 59 62 65 67 68 68 70 72 71 69 66 65 65 64 64 63 64 64 65 67 70 73 76 75 69 55
17 21 26 30 35 40 43 47 49 47 47 47 46 46 47 49 52 55 58 62 65 67 67 67 69 71 70 68 66 64 64 63 62 62 63 64 64 66 69 72 74 74 71 61
17 22 27 32 36 39 44 48 51 51 50 52 51 50 50 51 52 55 57 62 65 67 67 67 68 69 69 67 65 63 62 62 61 61 62 63 64 64 67 70 72 73 72 66
17 22 27 31 36 41 44 48 51 53 54 56 55 54 52 52 52 54 57 61 65 67 66 66 67 68 68 66 63 61 61 60 60 60 61 62 62 63 65 68 71 72 72 69
18 21 25 30 34 38 43 47 51 52 55 58 58 56 54 52 53 54 57 61 65 67 66 65 66 67 67 65 62 60 60 59 59 59 60 60 60 62 64 66 69 71 71 70
21 24 28 32 37 40 44 47 50 52 55 57 59 58 56 55 54 55 57 60 64 66 66 65 65 66 66 64 62 59 58 58 58 58 58 58 59 60 61 63 65 67 69 68
23 25 28 31 34 38 42 46 49 52 55 57 60 61 59 56 55 55 57 60 64 66 65 64 64 64 64 63 61 58 57 56 56 56 56 56 57 58 59 61 62 64 65 66
26 27 29 31 34 38 43 46 49 52 55 58 61 62 61 58 56 55 56 60 63 65 65 63 62 63 63 62 60 57 55 54 54 53 53 53 54 56 57 59 60 61 62 64
29 30 31 32 36 38 42 46 49 53 55 58 61 63 62 59 56 55 56 59 62 64 64 62 61 61 61 61 59 56 53 53 52 52 51 51 51 53 56 58 59 59 60 61
31 33 34 36 39 42 44 47 50 53 56 58 61 63 63 60 57 55 55 58 61 63 63 61 60 60 60 59 58 55 52 51 50 50 49 49 49 50 53 55 57 58 58 58
Wind_Direction
331 329 325 322 320 319 319 318 327 333 334 333 335 333 330 331 331 332 332 332 331 331 333 333 332 333 332 330 328 326 324 322 321 321 321 320 319 317 316 315 313 311 308 305
334 330 328 326 324 327 334 338 338 335 333 335 339 332 328 332 334 335 336 336 335 334 334 334 335 334 332 330 328 326 325 324 324 324 323 323 321 320 320 319 317 316 314 311
342 338 335 332 333 337 340 338 335 334 335 336 337 334 333 337 339 340 340 338 336 335 335 336 336 335 332 330 328 327 326 326 326 325 325 325 324 323 323 322 321 320 318 316
346 345 342 340 341 341 337 335 335 338 339 336 336 339 340 342 341 341 340 339 337 336 337 337 336 334 332 331 330 329 328 328 327 327 328 327 327 326 326 325 324 323 320 318
352 351 349 345 343 341 338 338 339 341 340 336 338 341 342 341 341 341 341 340 339 338 338 338 336 335 333 332 331 330 329 329 329 330 330 330 329 329 329 328 326 323 320 317
356 355 352 349 346 344 341 341 340 339 339 339 343 341 341 341 340 341 341 340 340 339 339 338 337 336 334 334 332 331 330 331 331 332 332 332 331 330 329 327 326 323 319 316
358 355 353 351 349 346 343 341 338 337 342 343 341 341 340 339 341 343 342 341 340 340 340 340 338 337 336 335 334 332 332 332 333 334 334 333 332 331 329 328 326 323 319 316
359 357 354 352 348 345 342 340 337 336 337 339 340 342 339 340 342 343 342 341 341 342 342 341 339 338 337 336 335 334 334 334 335 336 336 335 333 331 330 329 327 325 321 317
5 1 357 351 345 341 338 338 336 333 331 334 339 339 338 341 342 342 341 342 343 344 343 342 341 340 339 337 336 335 335 336 337 338 337 336 334 333 332 332 330 327 324 320
12 5 357 348 342 339 337 336 335 335 334 333 336 339 340 340 341 342 342 343 345 344 344 343 342 341 340 339 337 337 337 338 339 339 339 338 337 336 336 335 334 331 327 322
16 4 355 349 343 338 336 335 335 334 334 333 333 338 338 339 341 341 343 345 345 345 344 343 343 342 341 340 339 339 339 340 341 341 341 340 339 339 340 339 337 335 331 327
24 11 359 353 347 342 340 338 337 335 334 332 332 335 337 338 340 342 345 346 346 346 345 344 344 343 342 341 340 340 341 342 343 343 343 343 343 343 343 343 342 340 337 334
30 22 12 6 359 354 350 347 343 339 335 333 332 335 336 338 341 344 346 347 347 347 346 345 344 343 343 343 342 342 343 344 345 345 346 346 346 346 347 347 347 346 344 343
31 26 21 16 10 6 3 359 352 346 340 338 336 337 338 340 343 346 347 348 348 348 347 346 345 344 345 345 344 344 345 346 347 348 349 349 349 349 351 352 352 352 352 353
32 28 23 19 15 12 8 4 359 353 349 344 342 340 341 343 345 348 348 349 349 348 347 346 345 346 346 346 346 345 346 348 349 350 351 352 352 353 355 357 357 358 359 360
29 27 22 19 15 13 11 9 4 359 355 352 348 345 344 345 347 349 350 350 349 348 347 346 346 347 348 348 347 347 348 350 352 353 354 355 356 357 359 1 2 3 4 5
19 20 19 16 13 10 11 9 7 3 358 356 351 348 346 348 349 350 350 350 349 349 348 347 347 348 349 349 349 349 350 352 354 356 357 358 359 360 2 4 6 7 8 9
8 9 10 10 9 10 7 7 7 5 1 358 354 351 349 349 349 350 350 350 350 350 349 348 348 349 350 350 350 350 352 354 356 357 359 1 1 2 5 7 9 11 13 14
359 1 3 4 5 4 4 4 4 3 3 0 357 353 351 349 349 349 349 350 351 350 349 349 349 350 352 352 352 351 353 355 357 358 1 3 3 5 7 9 11 14 16 17
351 355 357 359 0 360 0 1 1 0 2 360 357 354 352 349 348 348 349 350 351 351 350 349 350 351 353 353 353 352 354 356 358 360 3 5 5 7 9 11 13 16 18 20
338 346 349 353 356 357 357 358 357 358 358 358 356 354 351 349 348 348 349 350 351 351 351 350 350 352 353 354 354 353 354 357 359 1 5 7 7 9 11 13 15 17 19 22
328 338 343 347 351 355 353 354 355 354 355 355 355 353 351 349 348 348 349 350 350 351 351 351 351 352 354 355 355 354 355 357 360 3 6 8 10 11 13 15 16 18 20 23
318 329 335 341 345 347 349 351 351 351 352 352 353 353 351 349 348 348 349 349 350 351 351 352 352 353 354 356 356 355 356 358 1 4 6 9 11 13 15 16 17 19 20 23
308 319 326 332 339 344 345 347 348 349 349 350 351 352 351 349 348 348 348 349 350 351 351 352 352 353 355 356 357 356 357 359 2 4 7 9 12 14 16 16 17 19 20 22
303 312 319 327 333 338 341 343 345 347 347 348 349 350 350 349 348 347 347 348 350 351 351 352 352 353 355 357 357 357 357 359 2 5 7 10 12 13 15 17 18 18 19 21
299 308 316 323 329 334 337 339 341 343 345 345 347 348 348 348 347 347 347 348 350 351 352 352 352 353 355 357 358 358 357 359 2 5 8 10 12 14 15 16 17 18 19 21
Height
5894 5893 5890 5888 5886 5885 5883 5880 5877 5874 5871 5869 5865 5860 5855 5850 5845 5838 5830 5822 5812 5801 5791 5781 5768 5754 5738 5723 5708 5692 5675 5658 5640 5624 5609 5596 5581 5567 5552 5538 5525 5515 5505 5497
5894 5892 5889 5887 5884 5881 5879 5877 5874 5871 5869 5866 5862 5857 5852 5846 5840 5832 5823 5813 5803 5792 5782 5770 5756 5741 5726 5710 5694 5677 5659 5641 5624 5609 5594 5580 5565 5551 5536 5523 5511 5501 5492 5484
5892 5891 5888 5885 5882 5879 5877 5875 5872 5870 5866 5862 5859 5855 5848 5841 5833 5825 5815 5805 5795 5784 5772 5759 5745 5730 5714 5697 5680 5662 5643 5626 5610 5595 5581 5567 5552 5537 5525 5513 5502 5491 5482 5473
5891 5889 5886 5883 5880 5878 5875 5873 5870 5867 5863 5858 5855 5850 5843 5835 5826 5818 5809 5798 5787 5775 5762 5748 5734 5718 5701 5684 5665 5646 5628 5612 5597 5583 5568 5553 5539 5527 5515 5503 5493 5482 5472 5462
5890 5887 5885 5882 5879 5876 5874 5870 5867 5863 5859 5855 5850 5843 5838 5829 5820 5812 5802 5791 5779 5767 5753 5739 5724 5707 5689 5671 5652 5633 5616 5601 5586 5570 5555 5540 5526 5514 5503 5493 5483 5472 5461 5450
5888 5886 5883 5881 5878 5874 5871 5868 5864 5860 5856 5851 5845 5838 5832 5823 5815 5805 5794 5783 5771 5758 5745 5730 5713 5696 5678 5659 5640 5623 5606 5591 5575 5559 5544 5529 5516 5505 5494 5484 5474 5463 5451 5439
5887 5885 5882 5879 5876 5873 5869 5865 5861 5856 5852 5847 5840 5833 5827 5818 5808 5798 5787 5775 5763 5750 5736 5720 5704 5686 5668 5650 5631 5614 5597 5581 5565 5549 5533 5519 5506 5495 5484 5473 5462 5450 5438 5426
5885 5883 5881 5877 5874 5870 5866 5862 5857 5852 5846 5843 5836 5828 5821 5812 5801 5791 5780 5769 5756 5743 5727 5711 5695 5677 5659 5640 5622 5605 5589 5573 5557 5540 5525 5510 5497 5485 5473 5461 5448 5434 5421 5408
5885 5882 5879 5876 5872 5868 5863 5859 5854 5848 5841 5836 5830 5823 5813 5804 5795 5785 5774 5762 5749 5734 5719 5703 5686 5668 5650 5632 5613 5596 5581 5565 5548 5532 5516 5502 5489 5476 5463 5449 5434 5418 5402 5387
5884 5881 5878 5874 5870 5865 5861 5855 5850 5844 5836 5828 5823 5817 5808 5799 5790 5780 5768 5755 5741 5727 5711 5695 5677 5660 5641 5623 5605 5588 5573 5557 5540 5524 5508 5494 5481 5468 5453 5438 5421 5403 5385 5366
5883 5880 5877 5872 5868 5863 5858 5853 5846 5840 5833 5824 5816 5814 5804 5794 5784 5773 5761 5748 5734 5720 5704 5687 5670 5652 5634 5615 5598 5582 5567 5551 5535 5518 5503 5488 5474 5459 5444 5427 5408 5389 5367 5345
5883 5880 5876 5872 5867 5861 5855 5850 5843 5837 5829 5820 5812 5808 5798 5789 5779 5767 5754 5741 5728 5713 5697 5680 5663 5645 5627 5610 5593 5577 5562 5546 5530 5513 5497 5482 5467 5452 5436 5418 5397 5375 5351 5327
5882 5879 5876 5871 5868 5861 5854 5847 5839 5832 5824 5816 5808 5804 5792 5783 5772 5761 5748 5735 5722 5706 5690 5673 5656 5640 5622 5605 5588 5572 5557 5542 5525 5509 5492 5477 5462 5446 5429 5410 5388 5364 5339 5316
5881 5877 5874 5869 5863 5856 5850 5843 5835 5827 5819 5812 5804 5797 5787 5777 5766 5755 5743 5729 5715 5700 5684 5668 5652 5635 5617 5600 5584 5568 5553 5537 5521 5505 5488 5473 5457 5441 5423 5403 5380 5356 5332 5310
5880 5876 5871 5866 5860 5854 5848 5841 5833 5824 5816 5808 5800 5791 5782 5772 5761 5749 5737 5723 5709 5695 5679 5663 5648 5631 5613 5596 5580 5564 5550 5534 5518 5502 5485 5470 5453 5437 5419 5399 5377 5352 5329 5309
5879 5875 5870 5866 5860 5853 5847 5839 5830 5821 5811 5803 5795 5786 5777 5767 5756 5744 5731 5718 5704 5690 5675 5660 5644 5627 5610 5593 5577 5562 5547 5531 5515 5499 5483 5467 5451 5435 5417 5398 5376 5352 5331 5312
5877 5873 5869 5864 5858 5851 5843 5835 5827 5818 5808 5799 5790 5782 5771 5761 5750 5739 5726 5713 5700 5686 5671 5656 5640 5623 5606 5590 5575 5560 5545 5529 5514 5498 5483 5467 5450 5434 5417 5398 5377 5356 5335 5317
5874 5869 5864 5860 5854 5846 5842 5831 5823 5815 5805 5795 5786 5776 5766 5756 5745 5734 5722 5710 5696 5682 5667 5652 5636 5619 5603 5587 5572 5557 5542 5528 5513 5498 5483 5467 5451 5436 5419 5401 5382 5362 5341 5323
5870 5865 5860 5854 5849 5843 5836 5827 5818 5810 5803 5792 5782 5772 5761 5751 5740 5729 5718 5706 5692 5678 5664 5648 5633 5617 5601 5585 5570 5556 5542 5528 5514 5500 5485 5469 5454 5438 5422 5406 5388 5369 5350 5332
5867 5862 5857 5851 5844 5838 5834 5825 5815 5807 5798 5789 5778 5768 5757 5747 5737 5727 5714 5702 5689 5675 5660 5645 5630 5615 5599 5583 5569 5555 5542 5528 5515 5501 5486 5470 5456 5441 5426 5410 5393 5376 5358 5341
5864 5860 5855 5848 5843 5837 5830 5821 5812 5804 5797 5786 5775 5765 5754 5744 5733 5723 5710 5698 5686 5672 5658 5643 5628 5613 5597 5582 5568 5555 5542 5528 5515 5501 5487 5473 5460 5445 5430 5415 5400 5383 5367 5350
5858 5854 5849 5843 5837 5833 5825 5817 5810 5803 5792 5782 5772 5761 5750 5739 5728 5717 5706 5695 5682 5669 5655 5640 5626 5611 5596 5581 5567 5555 5542 5529 5515 5502 5489 5477 5464 5450 5436 5422 5408 5394 5379 5363
5853 5850 5845 5841 5837 5830 5822 5815 5807 5799 5789 5779 5769 5758 5746 5735 5725 5714 5703 5691 5679 5666 5652 5638 5624 5610 5596 5581 5568 5555 5543 5530 5517 5504 5492 5480 5468 5456 5443 5430 5417 5404 5390 5375
5847 5845 5841 5836 5832 5826 5818 5811 5803 5795 5786 5776 5766 5755 5743 5732 5721 5710 5699 5688 5676 5663 5649 5636 5622 5609 5595 5581 5568 5555 5543 5531 5519 5507 5496 5484 5473 5461 5449 5437 5424 5412 5400 5386
5840 5838 5835 5831 5827 5822 5815 5807 5799 5791 5782 5772 5762 5751 5740 5728 5717 5707 5696 5685 5673 5660 5647 5634 5621 5607 5594 5581 5568 5556 5544 5533 5521 5510 5499 5488 5477 5465 5454 5443 5431 5418 5406 5394
5833 5831 5828 5824 5820 5814 5809 5802 5795 5786 5778 5768 5758 5747 5736 5724 5713 5703 5692 5682 5670 5658 5645 5632 5619 5607 5594 5581 5568 5556 5545 5535 5524 5513 5502 5492 5482 5470 5459 5447 5435 5424 5413 5402